Year,Month,Day,Hour,Minute,Value (Times are PST for temperature in C)
2008,10,28,00,00,4.80
2008,10,28,00,01,4.80
2008,10,28,00,02,4.80
2008,10,28,00,03,4.80
2008,10,28,00,04,4.80
2008,10,28,00,05,4.80
2008,10,28,00,06,4.80
2008,10,28,00,07,4.80
2008,10,28,00,08,4.80
2008,10,28,00,09,4.80
2008,10,28,00,10,4.80
2008,10,28,00,11,4.80
2008,10,28,00,12,4.70
2008,10,28,00,13,4.70
2008,10,28,00,14,4.70
2008,10,28,00,15,4.70
2008,10,28,00,16,4.80
2008,10,28,00,17,4.80
2008,10,28,00,18,4.80
2008,10,28,00,19,4.80
2008,10,28,00,20,4.70
2008,10,28,00,21,4.70
2008,10,28,00,22,4.70
2008,10,28,00,23,4.70
2008,10,28,00,24,4.70
2008,10,28,00,25,4.80
2008,10,28,00,26,4.80
2008,10,28,00,27,4.80
2008,10,28,00,28,4.80
2008,10,28,00,29,4.80
2008,10,28,00,30,4.80
2008,10,28,00,31,4.80
2008,10,28,00,32,4.80
2008,10,28,00,33,4.90
2008,10,28,00,34,4.80
2008,10,28,00,35,4.80
2008,10,28,00,36,4.80
2008,10,28,00,37,4.80
2008,10,28,00,38,4.70
2008,10,28,00,39,4.70
2008,10,28,00,40,4.70
2008,10,28,00,41,4.60
2008,10,28,00,42,4.60
2008,10,28,00,43,4.60
2008,10,28,00,44,4.60
2008,10,28,00,45,4.50
2008,10,28,00,46,4.50
2008,10,28,00,47,4.50
2008,10,28,00,48,4.50
2008,10,28,00,49,4.50
2008,10,28,00,50,4.50
2008,10,28,00,51,4.40
2008,10,28,00,52,4.40
2008,10,28,00,53,4.40
2008,10,28,00,54,4.40
2008,10,28,00,55,4.50
2008,10,28,00,56,4.50
2008,10,28,00,57,4.60
2008,10,28,00,58,4.60
2008,10,28,00,59,4.60
2008,10,28,01,00,4.60
2008,10,28,01,01,4.50
2008,10,28,01,02,4.50
2008,10,28,01,03,4.50
2008,10,28,01,04,4.40
2008,10,28,01,05,4.40
2008,10,28,01,06,4.40
2008,10,28,01,07,4.40
2008,10,28,01,08,4.40
2008,10,28,01,09,4.40
2008,10,28,01,10,4.40
2008,10,28,01,11,4.40
2008,10,28,01,12,4.40
2008,10,28,01,13,4.40
2008,10,28,01,14,4.40
2008,10,28,01,15,4.40
2008,10,28,01,16,4.40
2008,10,28,01,17,4.50
2008,10,28,01,18,4.50
2008,10,28,01,19,4.50
2008,10,28,01,20,4.50
2008,10,28,01,21,4.60
2008,10,28,01,22,4.60
2008,10,28,01,23,4.60
2008,10,28,01,24,4.50
2008,10,28,01,25,4.50
2008,10,28,01,26,4.40
2008,10,28,01,27,4.40
2008,10,28,01,28,4.40
2008,10,28,01,29,4.40
2008,10,28,01,30,4.40
2008,10,28,01,31,4.40
2008,10,28,01,32,4.40
2008,10,28,01,33,4.40
2008,10,28,01,34,4.40
2008,10,28,01,35,4.40
2008,10,28,01,36,4.40
2008,10,28,01,37,4.40
2008,10,28,01,38,4.40
2008,10,28,01,39,4.40
2008,10,28,01,40,4.50
2008,10,28,01,41,4.50
2008,10,28,01,42,4.50
2008,10,28,01,43,4.50
2008,10,28,01,44,4.50
2008,10,28,01,45,4.40
2008,10,28,01,46,4.40
2008,10,28,01,47,4.40
2008,10,28,01,48,4.40
2008,10,28,01,49,4.40
2008,10,28,01,50,4.40
2008,10,28,01,51,4.30
2008,10,28,01,52,4.30
2008,10,28,01,53,4.30
2008,10,28,01,54,4.30
2008,10,28,01,55,4.30
2008,10,28,01,56,4.20
2008,10,28,01,57,4.20
2008,10,28,01,58,4.20
2008,10,28,01,59,4.20
2008,10,28,02,00,4.20
2008,10,28,02,01,4.20
2008,10,28,02,02,4.20
2008,10,28,02,03,4.20
2008,10,28,02,04,4.20
2008,10,28,02,05,4.20
2008,10,28,02,06,4.20
2008,10,28,02,07,4.20
2008,10,28,02,08,4.20
2008,10,28,02,09,4.20
2008,10,28,02,10,4.20
2008,10,28,02,11,4.20
2008,10,28,02,12,4.20
2008,10,28,02,13,4.20
2008,10,28,02,14,4.20
2008,10,28,02,15,4.20
2008,10,28,02,16,4.20
2008,10,28,02,17,4.20
2008,10,28,02,18,4.20
2008,10,28,02,19,4.20
2008,10,28,02,20,4.20
2008,10,28,02,21,4.20
2008,10,28,02,22,4.20
2008,10,28,02,23,4.20
2008,10,28,02,24,4.20
2008,10,28,02,25,4.20
2008,10,28,02,26,4.20
2008,10,28,02,27,4.20
2008,10,28,02,28,4.20
2008,10,28,02,29,4.20
2008,10,28,02,30,4.20
2008,10,28,02,31,4.20
2008,10,28,02,32,4.20
2008,10,28,02,33,4.20
2008,10,28,02,34,4.20
2008,10,28,02,35,4.20
2008,10,28,02,36,4.20
2008,10,28,02,37,4.20
2008,10,28,02,38,4.20
2008,10,28,02,39,4.20
2008,10,28,02,40,4.20
2008,10,28,02,41,4.20
2008,10,28,02,42,4.10
2008,10,28,02,43,4.10
2008,10,28,02,44,4.00
2008,10,28,02,45,4.00
2008,10,28,02,46,3.90
2008,10,28,02,47,3.80
2008,10,28,02,48,3.70
2008,10,28,02,49,3.70
2008,10,28,02,50,3.70
2008,10,28,02,51,3.60
2008,10,28,02,52,3.60
2008,10,28,02,53,3.60
2008,10,28,02,54,3.70
2008,10,28,02,55,3.70
2008,10,28,02,56,3.80
2008,10,28,02,57,3.80
2008,10,28,02,58,3.80
2008,10,28,02,59,3.90
2008,10,28,03,00,3.90
2008,10,28,03,01,3.90
2008,10,28,03,02,3.90
2008,10,28,03,03,3.80
2008,10,28,03,04,3.90
2008,10,28,03,05,3.90
2008,10,28,03,06,3.90
2008,10,28,03,07,3.90
2008,10,28,03,08,3.90
2008,10,28,03,09,3.90
2008,10,28,03,10,3.90
2008,10,28,03,11,3.90
2008,10,28,03,12,3.90
2008,10,28,03,13,3.90
2008,10,28,03,14,3.90
2008,10,28,03,15,4.00
2008,10,28,03,16,4.00
2008,10,28,03,17,4.00
2008,10,28,03,18,4.00
2008,10,28,03,19,4.00
2008,10,28,03,20,3.90
2008,10,28,03,21,3.90
2008,10,28,03,22,3.90
2008,10,28,03,23,3.90
2008,10,28,03,24,3.90
2008,10,28,03,25,3.90
2008,10,28,03,26,3.90
2008,10,28,03,27,3.90
2008,10,28,03,28,3.90
2008,10,28,03,29,4.00
2008,10,28,03,30,4.00
2008,10,28,03,31,3.90
2008,10,28,03,32,3.90
2008,10,28,03,33,3.90
2008,10,28,03,34,3.90
2008,10,28,03,35,3.80
2008,10,28,03,36,3.80
2008,10,28,03,37,3.70
2008,10,28,03,38,3.70
2008,10,28,03,39,3.60
2008,10,28,03,40,3.60
2008,10,28,03,41,3.50
2008,10,28,03,42,3.50
2008,10,28,03,43,3.50
2008,10,28,03,44,3.50
2008,10,28,03,45,3.50
2008,10,28,03,46,3.50
2008,10,28,03,47,3.50
2008,10,28,03,48,3.50
2008,10,28,03,49,3.50
2008,10,28,03,50,3.50
2008,10,28,03,51,3.50
2008,10,28,03,52,3.50
2008,10,28,03,53,3.50
2008,10,28,03,54,3.50
2008,10,28,03,55,3.50
2008,10,28,03,56,3.50
2008,10,28,03,57,3.50
2008,10,28,03,58,3.50
2008,10,28,03,59,3.50
2008,10,28,04,00,3.50
2008,10,28,04,01,3.50
2008,10,28,04,02,3.50
2008,10,28,04,03,3.50
2008,10,28,04,04,3.50
2008,10,28,04,05,3.40
2008,10,28,04,06,3.40
2008,10,28,04,07,3.40
2008,10,28,04,08,3.40
2008,10,28,04,09,3.40
2008,10,28,04,10,3.40
2008,10,28,04,11,3.30
2008,10,28,04,12,3.40
2008,10,28,04,13,3.40
2008,10,28,04,14,3.40
2008,10,28,04,15,3.40
2008,10,28,04,16,3.40
2008,10,28,04,17,3.40
2008,10,28,04,18,3.40
2008,10,28,04,19,3.40
2008,10,28,04,20,3.40
2008,10,28,04,21,3.40
2008,10,28,04,22,3.40
2008,10,28,04,23,3.40
2008,10,28,04,24,3.40
2008,10,28,04,25,3.40
2008,10,28,04,26,3.40
2008,10,28,04,27,3.50
2008,10,28,04,28,3.50
2008,10,28,04,29,3.60
2008,10,28,04,30,3.60
2008,10,28,04,31,3.60
2008,10,28,04,32,3.50
2008,10,28,04,33,3.50
2008,10,28,04,34,3.40
2008,10,28,04,35,3.40
2008,10,28,04,36,3.40
2008,10,28,04,37,3.40
2008,10,28,04,38,3.40
2008,10,28,04,39,3.40
2008,10,28,04,40,3.40
2008,10,28,04,41,3.40
2008,10,28,04,42,3.40
2008,10,28,04,43,3.40
2008,10,28,04,44,3.40
2008,10,28,04,45,3.40
2008,10,28,04,46,3.40
2008,10,28,04,47,3.40
2008,10,28,04,48,3.40
2008,10,28,04,49,3.40
2008,10,28,04,50,3.40
2008,10,28,04,51,3.40
2008,10,28,04,52,3.50
2008,10,28,04,53,3.50
2008,10,28,04,54,3.50
2008,10,28,04,55,3.60
2008,10,28,04,56,3.60
2008,10,28,04,57,3.60
2008,10,28,04,58,3.60
2008,10,28,04,59,3.60
2008,10,28,05,00,3.60
2008,10,28,05,01,3.60
2008,10,28,05,02,3.60
2008,10,28,05,03,3.50
2008,10,28,05,04,3.50
2008,10,28,05,05,3.40
2008,10,28,05,06,3.40
2008,10,28,05,07,3.30
2008,10,28,05,08,3.30
2008,10,28,05,09,3.30
2008,10,28,05,10,3.20
2008,10,28,05,11,3.20
2008,10,28,05,12,3.20
2008,10,28,05,13,3.10
2008,10,28,05,14,3.10
2008,10,28,05,15,3.00
2008,10,28,05,16,2.90
2008,10,28,05,17,2.90
2008,10,28,05,18,2.80
2008,10,28,05,19,2.80
2008,10,28,05,20,2.80
2008,10,28,05,21,2.80
2008,10,28,05,22,2.80
2008,10,28,05,23,2.80
2008,10,28,05,24,2.80
2008,10,28,05,25,2.80
2008,10,28,05,26,2.70
2008,10,28,05,27,2.70
2008,10,28,05,28,2.70
2008,10,28,05,29,2.70
2008,10,28,05,30,2.80
2008,10,28,05,31,2.80
2008,10,28,05,32,2.80
2008,10,28,05,33,2.90
2008,10,28,05,34,2.90
2008,10,28,05,35,2.90
2008,10,28,05,36,2.90
2008,10,28,05,37,2.90
2008,10,28,05,38,2.90
2008,10,28,05,39,2.90
2008,10,28,05,40,2.90
2008,10,28,05,41,2.90
2008,10,28,05,42,2.90
2008,10,28,05,43,2.90
2008,10,28,05,44,2.80
2008,10,28,05,45,2.90
2008,10,28,05,46,2.90
2008,10,28,05,47,2.90
2008,10,28,05,48,2.90
2008,10,28,05,49,3.00
2008,10,28,05,50,3.00
2008,10,28,05,51,3.10
2008,10,28,05,52,3.10
2008,10,28,05,53,3.10
2008,10,28,05,54,3.10
2008,10,28,05,55,3.10
2008,10,28,05,56,3.10
2008,10,28,05,57,3.10
2008,10,28,05,58,3.10
2008,10,28,05,59,3.20
2008,10,28,06,00,3.20
2008,10,28,06,01,3.10
2008,10,28,06,02,3.10
2008,10,28,06,03,3.00
2008,10,28,06,04,3.00
2008,10,28,06,05,3.00
2008,10,28,06,06,2.90
2008,10,28,06,07,2.90
2008,10,28,06,08,2.90
2008,10,28,06,09,2.90
2008,10,28,06,10,2.80
2008,10,28,06,11,2.80
2008,10,28,06,12,2.80
2008,10,28,06,13,2.80
2008,10,28,06,14,2.80
2008,10,28,06,15,2.80
2008,10,28,06,16,2.70
2008,10,28,06,17,2.70
2008,10,28,06,18,2.70
2008,10,28,06,19,2.70
2008,10,28,06,20,2.70
2008,10,28,06,21,2.80
2008,10,28,06,22,2.80
2008,10,28,06,23,2.80
2008,10,28,06,24,2.80
2008,10,28,06,25,2.80
2008,10,28,06,26,2.80
2008,10,28,06,27,2.90
2008,10,28,06,28,2.90
2008,10,28,06,29,2.90
2008,10,28,06,30,2.90
2008,10,28,06,31,2.90
2008,10,28,06,32,3.00
2008,10,28,06,33,3.00
2008,10,28,06,34,3.00
2008,10,28,06,35,3.10
2008,10,28,06,36,3.10
2008,10,28,06,37,3.10
2008,10,28,06,38,3.10
2008,10,28,06,39,3.10
2008,10,28,06,40,3.10
2008,10,28,06,41,3.10
2008,10,28,06,42,3.10
2008,10,28,06,43,3.10
2008,10,28,06,44,3.00
2008,10,28,06,45,3.10
2008,10,28,06,46,3.10
2008,10,28,06,47,3.10
2008,10,28,06,48,3.20
2008,10,28,06,49,3.20
2008,10,28,06,50,3.20
2008,10,28,06,51,3.30
2008,10,28,06,52,3.30
2008,10,28,06,53,3.30
2008,10,28,06,54,3.30
2008,10,28,06,55,3.20
2008,10,28,06,56,3.20
2008,10,28,06,57,3.10
2008,10,28,06,58,3.10
2008,10,28,06,59,3.10
2008,10,28,07,00,3.10
2008,10,28,07,01,3.10
2008,10,28,07,02,3.20
2008,10,28,07,03,3.20
2008,10,28,07,04,3.20
2008,10,28,07,05,3.30
2008,10,28,07,06,3.30
2008,10,28,07,07,3.30
2008,10,28,07,08,3.30
2008,10,28,07,09,3.30
2008,10,28,07,10,3.40
2008,10,28,07,11,3.40
2008,10,28,07,12,3.40
2008,10,28,07,13,3.40
2008,10,28,07,14,3.40
2008,10,28,07,15,3.40
2008,10,28,07,16,3.40
2008,10,28,07,17,3.30
2008,10,28,07,18,3.30
2008,10,28,07,19,3.30
2008,10,28,07,20,3.30
2008,10,28,07,21,3.30
2008,10,28,07,22,3.30
2008,10,28,07,23,3.30
2008,10,28,07,24,3.30
2008,10,28,07,25,3.30
2008,10,28,07,26,3.20
2008,10,28,07,27,3.20
2008,10,28,07,28,3.10
2008,10,28,07,29,3.10
2008,10,28,07,30,3.10
2008,10,28,07,31,3.10
2008,10,28,07,32,3.20
2008,10,28,07,33,3.20
2008,10,28,07,34,3.20
2008,10,28,07,35,3.20
2008,10,28,07,36,3.30
2008,10,28,07,37,3.30
2008,10,28,07,38,3.30
2008,10,28,07,39,3.30
2008,10,28,07,40,3.30
2008,10,28,07,41,3.30
2008,10,28,07,42,3.30
2008,10,28,07,43,3.30
2008,10,28,07,44,3.30
2008,10,28,07,45,3.30
2008,10,28,07,46,3.30
2008,10,28,07,47,3.30
2008,10,28,07,48,3.40
2008,10,28,07,49,3.40
2008,10,28,07,50,3.40
2008,10,28,07,51,3.40
2008,10,28,07,52,3.40
2008,10,28,07,53,3.40
2008,10,28,07,54,3.40
2008,10,28,07,55,3.50
2008,10,28,07,56,3.50
2008,10,28,07,57,3.50
2008,10,28,07,58,3.60
2008,10,28,07,59,3.60
2008,10,28,08,00,3.60
2008,10,28,08,01,3.60
2008,10,28,08,02,3.60
2008,10,28,08,03,3.60
2008,10,28,08,04,3.60
2008,10,28,08,05,3.60
2008,10,28,08,06,3.60
2008,10,28,08,07,3.70
2008,10,28,08,08,3.70
2008,10,28,08,09,3.70
2008,10,28,08,10,3.70
2008,10,28,08,11,3.70
2008,10,28,08,12,3.70
2008,10,28,08,13,3.70
2008,10,28,08,14,3.70
2008,10,28,08,15,3.70
2008,10,28,08,16,3.70
2008,10,28,08,17,3.70
2008,10,28,08,18,3.60
2008,10,28,08,19,3.60
2008,10,28,08,20,3.60
2008,10,28,08,21,3.60
2008,10,28,08,22,3.60
2008,10,28,08,23,3.70
2008,10,28,08,24,3.70
2008,10,28,08,25,3.70
2008,10,28,08,26,3.80
2008,10,28,08,27,3.80
2008,10,28,08,28,3.80
2008,10,28,08,29,3.80
2008,10,28,08,30,3.80
2008,10,28,08,31,3.80
2008,10,28,08,32,3.80
2008,10,28,08,33,3.80
2008,10,28,08,34,3.90
2008,10,28,08,35,3.90
2008,10,28,08,36,4.00
2008,10,28,08,37,4.10
2008,10,28,08,38,4.10
2008,10,28,08,39,4.20
2008,10,28,08,40,4.30
2008,10,28,08,41,4.30
2008,10,28,08,42,4.40
2008,10,28,08,43,4.40
2008,10,28,08,44,4.40
2008,10,28,08,45,4.50
2008,10,28,08,46,4.50
2008,10,28,08,47,4.60
2008,10,28,08,48,4.70
2008,10,28,08,49,4.80
2008,10,28,08,50,4.90
2008,10,28,08,51,5.00
2008,10,28,08,52,5.10
2008,10,28,08,53,5.10
2008,10,28,08,54,5.20
2008,10,28,08,55,5.30
2008,10,28,08,56,5.40
2008,10,28,08,57,5.40
2008,10,28,08,58,5.40
2008,10,28,08,59,5.40
2008,10,28,09,00,5.40
2008,10,28,09,01,5.40
2008,10,28,09,02,5.50
2008,10,28,09,03,5.50
2008,10,28,09,04,5.60
2008,10,28,09,05,5.60
2008,10,28,09,06,5.60
2008,10,28,09,07,5.70
2008,10,28,09,08,5.70
2008,10,28,09,09,5.80
2008,10,28,09,10,5.80
2008,10,28,09,11,5.90
2008,10,28,09,12,5.90
2008,10,28,09,13,6.00
2008,10,28,09,14,6.10
2008,10,28,09,15,6.30
2008,10,28,09,16,6.30
2008,10,28,09,17,6.40
2008,10,28,09,18,6.40
2008,10,28,09,19,6.40
2008,10,28,09,20,6.40
2008,10,28,09,21,6.50
2008,10,28,09,22,6.50
2008,10,28,09,23,6.50
2008,10,28,09,24,6.50
2008,10,28,09,25,6.50
2008,10,28,09,26,6.50
2008,10,28,09,27,6.50
2008,10,28,09,28,6.40
2008,10,28,09,29,6.40
2008,10,28,09,30,6.40
2008,10,28,09,31,6.40
2008,10,28,09,32,6.40
2008,10,28,09,33,6.40
2008,10,28,09,34,6.50
2008,10,28,09,35,6.50
2008,10,28,09,36,6.60
2008,10,28,09,37,6.70
2008,10,28,09,38,6.80
2008,10,28,09,39,6.80
2008,10,28,09,40,6.90
2008,10,28,09,41,7.00
2008,10,28,09,42,7.10
2008,10,28,09,43,7.10
2008,10,28,09,44,7.20
2008,10,28,09,45,7.20
2008,10,28,09,46,7.20
2008,10,28,09,47,7.20
2008,10,28,09,48,7.20
2008,10,28,09,49,7.20
2008,10,28,09,50,7.20
2008,10,28,09,51,7.30
2008,10,28,09,52,7.30
2008,10,28,09,53,7.30
2008,10,28,09,54,7.40
2008,10,28,09,55,7.40
2008,10,28,09,56,7.50
2008,10,28,09,57,7.50
2008,10,28,09,58,7.50
2008,10,28,09,59,7.50
2008,10,28,10,00,7.50
2008,10,28,10,01,7.50
2008,10,28,10,02,7.50
2008,10,28,10,03,7.60
2008,10,28,10,04,7.60
2008,10,28,10,05,7.70
2008,10,28,10,06,7.70
2008,10,28,10,07,7.70
2008,10,28,10,08,7.80
2008,10,28,10,09,7.90
2008,10,28,10,10,7.90
2008,10,28,10,11,8.00
2008,10,28,10,12,8.10
2008,10,28,10,13,8.10
2008,10,28,10,14,8.10
2008,10,28,10,15,8.30
2008,10,28,10,16,8.30
2008,10,28,10,17,8.40
2008,10,28,10,18,8.50
2008,10,28,10,19,8.50
2008,10,28,10,20,8.60
2008,10,28,10,21,8.70
2008,10,28,10,22,8.70
2008,10,28,10,23,8.80
2008,10,28,10,24,8.80
2008,10,28,10,25,8.90
2008,10,28,10,26,8.90
2008,10,28,10,27,8.90
2008,10,28,10,28,8.90
2008,10,28,10,29,8.90
2008,10,28,10,30,9.00
2008,10,28,10,31,9.10
2008,10,28,10,32,9.20
2008,10,28,10,33,9.20
2008,10,28,10,34,9.30
2008,10,28,10,35,9.30
2008,10,28,10,36,9.40
2008,10,28,10,37,9.40
2008,10,28,10,38,9.50
2008,10,28,10,39,9.50
2008,10,28,10,40,9.50
2008,10,28,10,41,9.50
2008,10,28,10,42,9.60
2008,10,28,10,43,9.60
2008,10,28,10,44,9.70
2008,10,28,10,45,9.70
2008,10,28,10,46,9.70
2008,10,28,10,47,9.70
2008,10,28,10,48,9.70
2008,10,28,10,49,9.80
2008,10,28,10,50,9.80
2008,10,28,10,51,9.90
2008,10,28,10,52,10.00
2008,10,28,10,53,10.00
2008,10,28,10,54,10.00
2008,10,28,10,55,10.10
2008,10,28,10,56,10.10
2008,10,28,10,57,10.20
2008,10,28,10,58,10.20
2008,10,28,10,59,10.30
2008,10,28,11,00,10.30
2008,10,28,11,01,10.40
2008,10,28,11,02,10.40
2008,10,28,11,03,10.40
2008,10,28,11,04,10.30
2008,10,28,11,05,10.30
2008,10,28,11,06,10.30
2008,10,28,11,07,10.30
2008,10,28,11,08,10.30
2008,10,28,11,09,10.30
2008,10,28,11,10,10.30
2008,10,28,11,11,10.30
2008,10,28,11,12,10.40
2008,10,28,11,13,10.40
2008,10,28,11,14,10.50
2008,10,28,11,15,10.60
2008,10,28,11,16,10.70
2008,10,28,11,17,10.80
2008,10,28,11,18,10.80
2008,10,28,11,19,10.80
2008,10,28,11,20,10.80
2008,10,28,11,21,10.90
2008,10,28,11,22,10.80
2008,10,28,11,23,10.80
2008,10,28,11,24,10.90
2008,10,28,11,25,10.90
2008,10,28,11,26,10.90
2008,10,28,11,27,10.90
2008,10,28,11,28,11.00
2008,10,28,11,29,11.00
2008,10,28,11,30,11.20
2008,10,28,11,31,11.20
2008,10,28,11,32,11.30
2008,10,28,11,33,11.40
2008,10,28,11,34,11.50
2008,10,28,11,35,11.50
2008,10,28,11,36,11.50
2008,10,28,11,37,11.60
2008,10,28,11,38,11.60
2008,10,28,11,39,11.60
2008,10,28,11,40,11.70
2008,10,28,11,41,11.70
2008,10,28,11,42,11.80
2008,10,28,11,43,11.80
2008,10,28,11,44,11.80
2008,10,28,11,45,11.90
2008,10,28,11,46,11.90
2008,10,28,11,47,11.90
2008,10,28,11,48,12.00
2008,10,28,11,49,12.10
2008,10,28,11,50,12.10
2008,10,28,11,51,12.20
2008,10,28,11,52,12.20
2008,10,28,11,53,12.20
2008,10,28,11,54,12.20
2008,10,28,11,55,12.20
2008,10,28,11,56,12.20
2008,10,28,11,57,12.30
2008,10,28,11,58,12.40
2008,10,28,11,59,12.40
2008,10,28,12,00,12.50
2008,10,28,12,01,12.50
2008,10,28,12,02,12.60
2008,10,28,12,03,12.70
2008,10,28,12,04,12.70
2008,10,28,12,05,12.70
2008,10,28,12,06,12.80
2008,10,28,12,07,12.90
2008,10,28,12,08,12.90
2008,10,28,12,09,13.00
2008,10,28,12,10,13.10
2008,10,28,12,11,13.20
2008,10,28,12,12,13.30
2008,10,28,12,13,13.40
2008,10,28,12,14,13.50
2008,10,28,12,15,13.60
2008,10,28,12,16,13.60
2008,10,28,12,17,13.60
2008,10,28,12,18,13.60
2008,10,28,12,19,13.50
2008,10,28,12,20,13.50
2008,10,28,12,21,13.50
2008,10,28,12,22,13.50
2008,10,28,12,23,13.40
2008,10,28,12,24,13.30
2008,10,28,12,25,13.30
2008,10,28,12,26,13.40
2008,10,28,12,27,13.40
2008,10,28,12,28,13.40
2008,10,28,12,29,13.40
2008,10,28,12,30,13.40
2008,10,28,12,31,13.30
2008,10,28,12,32,13.20
2008,10,28,12,33,13.10
2008,10,28,12,34,13.00
2008,10,28,12,35,12.90
2008,10,28,12,36,12.80
2008,10,28,12,37,12.70
2008,10,28,12,38,12.70
2008,10,28,12,39,12.70
2008,10,28,12,40,12.80
2008,10,28,12,41,12.90
2008,10,28,12,42,13.00
2008,10,28,12,43,13.10
2008,10,28,12,44,13.20
2008,10,28,12,45,13.40
2008,10,28,12,46,13.50
2008,10,28,12,47,13.60
2008,10,28,12,48,13.80
2008,10,28,12,49,13.90
2008,10,28,12,50,13.90
2008,10,28,12,51,14.00
2008,10,28,12,52,14.20
2008,10,28,12,53,14.30
2008,10,28,12,54,14.30
2008,10,28,12,55,14.40
2008,10,28,12,56,14.40
2008,10,28,12,57,14.40
2008,10,28,12,58,14.40
2008,10,28,12,59,14.50
2008,10,28,13,00,14.50
2008,10,28,13,01,14.50
2008,10,28,13,02,14.60
2008,10,28,13,03,14.70
2008,10,28,13,04,14.80
2008,10,28,13,05,14.80
2008,10,28,13,06,14.80
2008,10,28,13,07,14.70
2008,10,28,13,08,14.70
2008,10,28,13,09,14.70
2008,10,28,13,10,14.60
2008,10,28,13,11,14.60
2008,10,28,13,12,14.60
2008,10,28,13,13,14.50
2008,10,28,13,14,14.50
2008,10,28,13,15,14.60
2008,10,28,13,16,14.50
2008,10,28,13,17,14.40
2008,10,28,13,18,14.30
2008,10,28,13,19,14.30
2008,10,28,13,20,14.20
2008,10,28,13,21,14.20
2008,10,28,13,22,14.30
2008,10,28,13,23,14.40
2008,10,28,13,24,14.40
2008,10,28,13,25,14.30
2008,10,28,13,26,14.20
2008,10,28,13,27,14.10
2008,10,28,13,28,14.10
2008,10,28,13,29,14.00
2008,10,28,13,30,13.90
2008,10,28,13,31,13.90
2008,10,28,13,32,13.80
2008,10,28,13,33,13.80
2008,10,28,13,34,13.80
2008,10,28,13,35,13.80
2008,10,28,13,36,13.70
2008,10,28,13,37,13.70
2008,10,28,13,38,13.60
2008,10,28,13,39,13.40
2008,10,28,13,40,13.30
2008,10,28,13,41,13.20
2008,10,28,13,42,13.00
2008,10,28,13,43,12.90
2008,10,28,13,44,12.80
2008,10,28,13,45,12.70
2008,10,28,13,46,12.80
2008,10,28,13,47,12.80
2008,10,28,13,48,12.90
2008,10,28,13,49,13.00
2008,10,28,13,50,13.10
2008,10,28,13,51,13.10
2008,10,28,13,52,13.10
2008,10,28,13,53,13.10
2008,10,28,13,54,13.20
2008,10,28,13,55,13.30
2008,10,28,13,56,13.40
2008,10,28,13,57,13.50
2008,10,28,13,58,13.50
2008,10,28,13,59,13.50
2008,10,28,14,00,13.50
2008,10,28,14,01,13.40
2008,10,28,14,02,13.40
2008,10,28,14,03,13.30
2008,10,28,14,04,13.30
2008,10,28,14,05,13.30
2008,10,28,14,06,13.30
2008,10,28,14,07,13.30
2008,10,28,14,08,13.30
2008,10,28,14,09,13.30
2008,10,28,14,10,13.20
2008,10,28,14,11,13.20
2008,10,28,14,12,13.20
2008,10,28,14,13,13.10
2008,10,28,14,14,13.10
2008,10,28,14,15,13.10
2008,10,28,14,16,13.10
2008,10,28,14,17,13.30
2008,10,28,14,18,13.40
2008,10,28,14,19,13.40
2008,10,28,14,20,13.40
2008,10,28,14,21,13.30
2008,10,28,14,22,13.20
2008,10,28,14,23,13.10
2008,10,28,14,24,13.10
2008,10,28,14,25,13.10
2008,10,28,14,26,13.00
2008,10,28,14,27,13.00
2008,10,28,14,28,12.90
2008,10,28,14,29,12.90
2008,10,28,14,30,12.80
2008,10,28,14,31,12.90
2008,10,28,14,32,12.80
2008,10,28,14,33,12.80
2008,10,28,14,34,12.80
2008,10,28,14,35,12.80
2008,10,28,14,36,12.80
2008,10,28,14,37,12.80
2008,10,28,14,38,12.70
2008,10,28,14,39,12.60
2008,10,28,14,40,12.50
2008,10,28,14,41,12.40
2008,10,28,14,42,12.30
2008,10,28,14,43,12.30
2008,10,28,14,44,12.20
2008,10,28,14,45,12.20
2008,10,28,14,46,12.20
2008,10,28,14,47,12.20
2008,10,28,14,48,12.20
2008,10,28,14,49,12.20
2008,10,28,14,50,12.20
2008,10,28,14,51,12.10
2008,10,28,14,52,12.10
2008,10,28,14,53,12.10
2008,10,28,14,54,12.10
2008,10,28,14,55,12.10
2008,10,28,14,56,12.10
2008,10,28,14,57,12.10
2008,10,28,14,58,12.10
2008,10,28,14,59,12.10
2008,10,28,15,00,11.90
2008,10,28,15,01,11.70
2008,10,28,15,02,11.50
2008,10,28,15,03,11.40
2008,10,28,15,04,11.40
2008,10,28,15,05,11.30
2008,10,28,15,06,11.30
2008,10,28,15,07,11.30
2008,10,28,15,08,11.20
2008,10,28,15,09,11.20
2008,10,28,15,10,11.20
2008,10,28,15,11,11.10
2008,10,28,15,12,11.20
2008,10,28,15,13,11.20
2008,10,28,15,14,11.20
2008,10,28,15,15,11.20
2008,10,28,15,16,11.30
2008,10,28,15,17,11.30
2008,10,28,15,18,11.30
2008,10,28,15,19,11.30
2008,10,28,15,20,11.30
2008,10,28,15,21,11.30
2008,10,28,15,22,11.30
2008,10,28,15,23,11.30
2008,10,28,15,24,11.30
2008,10,28,15,25,11.30
2008,10,28,15,26,11.30
2008,10,28,15,27,11.30
2008,10,28,15,28,11.30
2008,10,28,15,29,11.30
2008,10,28,15,30,11.30
2008,10,28,15,31,11.30
2008,10,28,15,32,11.30
2008,10,28,15,33,11.30
2008,10,28,15,34,11.30
2008,10,28,15,35,11.30
2008,10,28,15,36,11.40
2008,10,28,15,37,11.40
2008,10,28,15,38,11.50
2008,10,28,15,39,11.50
2008,10,28,15,40,11.50
2008,10,28,15,41,11.50
2008,10,28,15,42,11.60
2008,10,28,15,43,11.60
2008,10,28,15,44,11.60
2008,10,28,15,45,11.60
2008,10,28,15,46,11.70
2008,10,28,15,47,11.80
2008,10,28,15,48,11.80
2008,10,28,15,49,11.90
2008,10,28,15,50,11.90
2008,10,28,15,51,12.00
2008,10,28,15,52,12.10
2008,10,28,15,53,12.10
2008,10,28,15,54,12.10
2008,10,28,15,55,12.20
2008,10,28,15,56,12.20
2008,10,28,15,57,12.30
2008,10,28,15,58,12.30
2008,10,28,15,59,12.30
2008,10,28,16,00,12.30
2008,10,28,16,01,12.30
2008,10,28,16,02,12.30
2008,10,28,16,03,12.40
2008,10,28,16,04,12.40
2008,10,28,16,05,12.30
2008,10,28,16,06,12.30
2008,10,28,16,07,12.30
2008,10,28,16,08,12.20
2008,10,28,16,09,12.20
2008,10,28,16,10,12.20
2008,10,28,16,11,12.20
2008,10,28,16,12,12.30
2008,10,28,16,13,12.40
2008,10,28,16,14,12.40
2008,10,28,16,15,12.40
2008,10,28,16,16,12.40
2008,10,28,16,17,12.40
2008,10,28,16,18,12.40
2008,10,28,16,19,12.50
2008,10,28,16,20,12.50
2008,10,28,16,21,12.50
2008,10,28,16,22,12.50
2008,10,28,16,23,12.60
2008,10,28,16,24,12.40
2008,10,28,16,25,12.30
2008,10,28,16,26,12.20
2008,10,28,16,27,12.00
2008,10,28,16,28,11.90
2008,10,28,16,29,11.70
2008,10,28,16,30,11.60
2008,10,28,16,31,11.50
2008,10,28,16,32,11.40
2008,10,28,16,33,11.40
2008,10,28,16,34,11.30
2008,10,28,16,35,11.30
2008,10,28,16,36,11.30
2008,10,28,16,37,11.20
2008,10,28,16,38,11.10
2008,10,28,16,39,11.00
2008,10,28,16,40,10.90
2008,10,28,16,41,10.80
2008,10,28,16,42,10.80
2008,10,28,16,43,10.70
2008,10,28,16,44,10.70
2008,10,28,16,45,10.70
2008,10,28,16,46,10.60
2008,10,28,16,47,10.60
2008,10,28,16,48,10.60
2008,10,28,16,49,10.60
2008,10,28,16,50,10.50
2008,10,28,16,51,10.50
2008,10,28,16,52,10.50
2008,10,28,16,53,10.40
2008,10,28,16,54,10.40
2008,10,28,16,55,10.40
2008,10,28,16,56,10.40
2008,10,28,16,57,10.40
2008,10,28,16,58,10.40
2008,10,28,16,59,10.40
2008,10,28,17,00,10.40
2008,10,28,17,01,10.30
2008,10,28,17,02,10.30
2008,10,28,17,03,10.30
2008,10,28,17,04,10.30
2008,10,28,17,05,10.30
2008,10,28,17,06,10.30
2008,10,28,17,07,10.30
2008,10,28,17,08,10.30
2008,10,28,17,09,10.30
2008,10,28,17,10,10.30
2008,10,28,17,11,10.30
2008,10,28,17,12,10.30
2008,10,28,17,13,10.30
2008,10,28,17,14,10.30
2008,10,28,17,15,10.30
2008,10,28,17,16,10.30
2008,10,28,17,17,10.30
2008,10,28,17,18,10.30
2008,10,28,17,19,10.30
2008,10,28,17,20,10.20
2008,10,28,17,21,10.20
2008,10,28,17,22,10.20
2008,10,28,17,23,10.20
2008,10,28,17,24,10.10
2008,10,28,17,25,10.10
2008,10,28,17,26,10.10
2008,10,28,17,27,10.10
2008,10,28,17,28,10.10
2008,10,28,17,29,10.10
2008,10,28,17,30,10.10
2008,10,28,17,31,10.10
2008,10,28,17,32,10.00
2008,10,28,17,33,10.00
2008,10,28,17,34,10.00
2008,10,28,17,35,10.00
2008,10,28,17,36,10.00
2008,10,28,17,37,10.00
2008,10,28,17,38,10.00
2008,10,28,17,39,10.00
2008,10,28,17,40,10.00
2008,10,28,17,41,10.00
2008,10,28,17,42,10.00
2008,10,28,17,43,10.00
2008,10,28,17,44,10.00
2008,10,28,17,45,10.00
2008,10,28,17,46,10.00
2008,10,28,17,47,10.00